When you browse on this site, cookies collect data to enhance your experience and personalize the content and advertising you see.
Visit our Privacy Policy to learn more. By continuing to use the site, you agree to this use of cookies and data.
  • In Schweiz
  • Länderverzeichnis
  • Für 7 Tage
  • Wassertemperatur
  • Wetterkarte
  • Widgets
  • user-avatar
    Anmelden

    Stündliche Wetter Owrutsch

    Heute, 10 April, Freitag

    Zeit Temperatur Niederschläge Wind Luftdruck Luftfeuchtigkeit
    00:00 +11°C° 0.1 mm 3 m/S 745 mmHg 71%
    01:00 +10°C° 0.1 mm 3 m/S 745 mmHg 76%
    02:00 +10°C° 0 mm 3 m/S 745 mmHg 80%
    03:00 +9°C° 0 mm 3 m/S 746 mmHg 81%
    04:00 +7°C° 0 mm 4 m/S 746 mmHg 83%
    05:00 +6°C° 0 mm 4 m/S 746 mmHg 84%
    06:00 +6°C° 0 mm 4 m/S 746 mmHg 78%
    07:00 +7°C° 0 mm 5 m/S 747 mmHg 71%
    08:00 +7°C° 0 mm 5 m/S 748 mmHg 65%
    09:00 +7°C° 0 mm 6 m/S 748 mmHg 55%
    10:00 +8°C° 0 mm 6 m/S 748 mmHg 46%
    11:00 +8°C° 0 mm 7 m/S 749 mmHg 36%
    12:00 +9°C° 0 mm 6 m/S 749 mmHg 35%
    13:00 +9°C° 0 mm 6 m/S 749 mmHg 34%
    14:00 +10°C° 0 mm 6 m/S 749 mmHg 31%
    15:00 +9°C° 0 mm 6 m/S 749 mmHg 34%
    16:00 +9°C° 0 mm 5 m/S 749 mmHg 37%
    17:00 +9°C° 0 mm 5 m/S 749 mmHg 41%
    18:00 +7°C° 0 mm 4 m/S 749 mmHg 46%
    19:00 +7°C° 0 mm 3 m/S 750 mmHg 51%
    20:00 +5°C° 0 mm 3 m/S 750 mmHg 56%
    21:00 +4°C° 0 mm 3 m/S 750 mmHg 57%
    22:00 +5°C° 0 mm 2 m/S 751 mmHg 58%
    23:00 +4°C° 0 mm 2 m/S 751 mmHg 60%

    Morgen, 11 April, Samstag

    Zeit Temperatur Niederschläge Wind Luftdruck Luftfeuchtigkeit
    00:00 +3°C° 0 mm 2 m/S 751 mmHg 61%
    01:00 +3°C° 0 mm 2 m/S 751 mmHg 62%
    02:00 +2°C° 0 mm 2 m/S 751 mmHg 63%
    03:00 +2°C° 0 mm 2 m/S 751 mmHg 64%
    04:00 +2°C° 0 mm 2 m/S 751 mmHg 65%
    05:00 +2°C° 0 mm 2 m/S 751 mmHg 66%
    06:00 +2°C° 0 mm 3 m/S 751 mmHg 61%
    07:00 +4°C° 0 mm 4 m/S 751 mmHg 56%
    08:00 +5°C° 0 mm 4 m/S 751 mmHg 52%
    09:00 +6°C° 0 mm 5 m/S 752 mmHg 47%
    10:00 +8°C° 0 mm 5 m/S 752 mmHg 43%
    11:00 +9°C° 0 mm 5 m/S 752 mmHg 39%
    12:00 +9°C° 0 mm 6 m/S 752 mmHg 37%
    13:00 +9°C° 0 mm 6 m/S 752 mmHg 34%
    14:00 +9°C° 0 mm 6 m/S 752 mmHg 32%
    15:00 +9°C° 0 mm 6 m/S 752 mmHg 33%
    16:00 +8°C° 0 mm 6 m/S 752 mmHg 35%
    17:00 +8°C° 0 mm 6 m/S 753 mmHg 36%
    18:00 +6°C° 0 mm 5 m/S 753 mmHg 40%
    19:00 +5°C° 0 mm 4 m/S 754 mmHg 43%
    20:00 +3°C° 0 mm 3 m/S 754 mmHg 47%
    21:00 +3°C° 0 mm 2 m/S 755 mmHg 50%
    22:00 +3°C° 0 mm 2 m/S 755 mmHg 52%
    23:00 +2°C° 0 mm 2 m/S 755 mmHg 55%

    übermorgen, 12 April, Sonntag

    Zeit Temperatur Niederschläge Wind Luftdruck Luftfeuchtigkeit
    00:00 +3°C° 0 mm 1 m/S 756 mmHg 55%
    01:00 +2°C° 0 mm 1 m/S 756 mmHg 55%
    02:00 +2°C° 0 mm 1 m/S 756 mmHg 55%
    03:00 +2°C° 0 mm 1 m/S 756 mmHg 56%
    04:00 +1°C° 0 mm 1 m/S 756 mmHg 56%
    05:00 0°C° 0 mm 0 m/S 756 mmHg 57%
    06:00 +2°C° 0 mm 1 m/S 756 mmHg 51%
    07:00 +4°C° 0 mm 1 m/S 756 mmHg 46%
    08:00 +6°C° 0 mm 1 m/S 756 mmHg 40%
    09:00 +6°C° 0 mm 2 m/S 755 mmHg 37%
    10:00 +7°C° 0 mm 2 m/S 755 mmHg 34%
    11:00 +8°C° 0 mm 3 m/S 755 mmHg 31%
    12:00 +9°C° 0 mm 3 m/S 754 mmHg 30%
    13:00 +10°C° 0 mm 3 m/S 754 mmHg 30%
    14:00 +10°C° 0 mm 3 m/S 753 mmHg 29%
    15:00 +10°C° 0 mm 3 m/S 753 mmHg 31%
    16:00 +10°C° 0 mm 3 m/S 752 mmHg 32%
    17:00 +10°C° 0 mm 3 m/S 752 mmHg 34%
    18:00 +9°C° 0 mm 3 m/S 751 mmHg 39%
    19:00 +8°C° 0 mm 3 m/S 751 mmHg 44%
    20:00 +6°C° 0 mm 2 m/S 750 mmHg 49%
    21:00 +5°C° 0 mm 3 m/S 750 mmHg 50%
    22:00 +5°C° 0 mm 3 m/S 750 mmHg 52%
    23:00 +5°C° 0 mm 3 m/S 749 mmHg 53%

    13 April, Montag

    Zeit Temperatur Niederschläge Wind Luftdruck Luftfeuchtigkeit
    00:00 +4°C° 0 mm 3 m/S 749 mmHg 55%
    01:00 +4°C° 0 mm 3 m/S 749 mmHg 58%
    02:00 +4°C° 0 mm 3 m/S 748 mmHg 61%
    03:00 +4°C° 0 mm 3 m/S 748 mmHg 65%
    04:00 +3°C° 0 mm 3 m/S 747 mmHg 70%
    05:00 +3°C° 0 mm 3 m/S 747 mmHg 74%
    06:00 +5°C° 0 mm 3 m/S 746 mmHg 71%
    07:00 +8°C° 0 mm 3 m/S 746 mmHg 67%
    08:00 +10°C° 0 mm 4 m/S 746 mmHg 64%
    09:00 +12°C° 0 mm 4 m/S 745 mmHg 57%
    10:00 +14°C° 0 mm 5 m/S 745 mmHg 50%
    11:00 +17°C° 0 mm 6 m/S 744 mmHg 43%
    12:00 +17°C° 0 mm 6 m/S 744 mmHg 42%
    13:00 +19°C° 0 mm 6 m/S 743 mmHg 42%
    14:00 +18°C° 0 mm 7 m/S 743 mmHg 41%
    15:00 +19°C° 0 mm 6 m/S 742 mmHg 43%
    16:00 +17°C° 0 mm 5 m/S 742 mmHg 45%
    17:00 +16°C° 0 mm 5 m/S 741 mmHg 47%
    18:00 +15°C° 0 mm 5 m/S 740 mmHg 51%
    19:00 +14°C° 0 mm 5 m/S 740 mmHg 55%
    20:00 +13°C° 0 mm 5 m/S 739 mmHg 59%
    21:00 +13°C° 0 mm 5 m/S 739 mmHg 58%
    22:00 +13°C° 0 mm 5 m/S 738 mmHg 58%
    23:00 +13°C° 0 mm 5 m/S 738 mmHg 57%

    14 April, Dienstag

    Zeit Temperatur Niederschläge Wind Luftdruck Luftfeuchtigkeit
    00:00 +12°C° 0 mm 5 m/S 737 mmHg 60%
    01:00 +10°C° 0 mm 5 m/S 737 mmHg 63%
    02:00 +10°C° 0 mm 5 m/S 736 mmHg 66%
    03:00 +9°C° 0.3 mm 5 m/S 736 mmHg 71%
    04:00 +10°C° 0.3 mm 4 m/S 736 mmHg 77%
    05:00 +8°C° 0.3 mm 4 m/S 736 mmHg 83%
    06:00 +7°C° 0.9 mm 4 m/S 737 mmHg 84%
    07:00 +6°C° 0.9 mm 5 m/S 737 mmHg 85%
    08:00 +3°C° 0.9 mm 5 m/S 738 mmHg 86%
    09:00 +3°C° 0.4 mm 6 m/S 738 mmHg 86%
    10:00 +2°C° 0.4 mm 6 m/S 739 mmHg 87%
    11:00 +1°C° 0.4 mm 6 m/S 740 mmHg 87%
    12:00 +2°C° 0.1 mm 6 m/S 740 mmHg 77%
    13:00 +2°C° 0.1 mm 5 m/S 741 mmHg 67%
    14:00 +3°C° 0.1 mm 5 m/S 741 mmHg 57%
    15:00 +3°C° 0 mm 5 m/S 742 mmHg 52%
    16:00 +5°C° 0 mm 5 m/S 742 mmHg 47%
    17:00 +5°C° 0 mm 4 m/S 742 mmHg 42%
    18:00 +4°C° 0 mm 4 m/S 742 mmHg 47%
    19:00 +3°C° 0 mm 3 m/S 742 mmHg 53%
    20:00 +3°C° 0 mm 2 m/S 742 mmHg 58%
    21:00 +3°C° 0 mm 2 m/S 743 mmHg 62%
    22:00 +1°C° 0 mm 3 m/S 743 mmHg 65%
    23:00 0°C° 0 mm 3 m/S 743 mmHg 68%

    15 April, Mittwoch

    Zeit Temperatur Niederschläge Wind Luftdruck Luftfeuchtigkeit
    00:00 0°C° 0 mm 3 m/S 743 mmHg 72%
    01:00 -1°C° 0 mm 4 m/S 743 mmHg 75%
    02:00 -1°C° 0 mm 4 m/S 743 mmHg 79%
    03:00 -2°C° 0 mm 4 m/S 743 mmHg 82%
    04:00 -2°C° 0 mm 5 m/S 743 mmHg 84%
    05:00 -2°C° 0 mm 5 m/S 743 mmHg 87%
    06:00 -2°C° 0 mm 5 m/S 744 mmHg 81%
    07:00 -2°C° 0 mm 5 m/S 744 mmHg 76%
    08:00 -2°C° 0 mm 6 m/S 744 mmHg 70%
    09:00 0°C° 0 mm 5 m/S 744 mmHg 66%
    10:00 0°C° 0 mm 5 m/S 744 mmHg 62%
    11:00 +1°C° 0 mm 5 m/S 744 mmHg 58%
    12:00 +2°C° 0.1 mm 5 m/S 743 mmHg 61%
    13:00 +2°C° 0.1 mm 5 m/S 743 mmHg 63%
    14:00 +3°C° 0.1 mm 5 m/S 742 mmHg 65%
    15:00 +2°C° 0.3 mm 5 m/S 742 mmHg 72%
    16:00 +2°C° 0.3 mm 5 m/S 741 mmHg 79%
    17:00 +2°C° 0.3 mm 5 m/S 740 mmHg 86%
    18:00 +1°C° 1.3 mm 5 m/S 740 mmHg 89%
    19:00 +1°C° 1.3 mm 5 m/S 739 mmHg 93%
    20:00 0°C° 1.3 mm 5 m/S 738 mmHg 96%
    21:00 0°C° 0.9 mm 5 m/S 737 mmHg 96%
    22:00 0°C° 0.9 mm 4 m/S 737 mmHg 96%
    23:00 0°C° 0.9 mm 4 m/S 736 mmHg 95%
    Mehr zeigen